Oak Island, MN

4:06 AM CDT on July 26, 2016 (GMT -0500)
Flag Island

Weather History for KFGN - April, 2013

Change the Weather History Date:

Wednesday, April 10, 2013

  Actual Average Record
Temperature  
Mean Temperature 26 °F -  
Max Temperature 39 °F 38 °F 60 °F (2005)
Min Temperature 14 °F 23 °F -2 °F (1997)
Degree Days  
Heating Degree Days 38    
Moisture  
Dew Point 13 °F    
Average Humidity 55    
Maximum Humidity 86    
Minimum Humidity 36    
Precipitation  
Precipitation 0.00 in - - ()
Sea Level Pressure  
Sea Level Pressure 30.23 in    
Wind  
Wind Speed 8 mph (North)    
Max Wind Speed 14 mph    
Max Gust Speed -    
Visibility 10 miles    
Events      
Averages and records for this station are not official NWS values.
T = Trace of Precipitation, MM = Missing Value Source: NWS Daily Summary

Daily Weather History Graph

Daily Weather History Graph

Search for Another Location

Airport or City:

Trip Planner

Search our weather history database for the weather conditions in past years. The results will help you decide how hot, cold, wet, or windy it might be!

Date:

Astronomy

Apr. 10, 2013 Rise Set
Actual Time 6:37 AM CDT 8:05 PM CDT
Civil Twilight 6:04 AM CDT 8:38 PM CDT
Nautical Twilight 5:24 AM CDT 9:18 PM CDT
Astronomical Twilight 4:40 AM CDT 10:02 PM CDT
Moon 6:31 AM CDT (4/10) 8:47 PM CDT (4/10)
Length of Visible Light 14h 33m
Length of Day
13h 27m
New Moon, 0% of the Moon is Illuminated
Apr 10
New Moon
Apr 18
First Quarter
Apr 25
Full
May 2
Last Quarter
May 9
New

Hourly Weather History & Observations

Time (CDT) Temp. Windchill Dew Point Humidity Pressure Visibility Wind Dir Wind Speed Gust Speed Precip Events Conditions
12:13 AM 19.4 °F 10.4 °F 12.2 °F 74% 30.29 in 10.0 mi WNW 6.9 mph - N/A   Clear
12:34 AM 21.2 °F 12.6 °F 12.2 °F 68% 30.30 in 10.0 mi WNW 6.9 mph - N/A   Clear
12:52 AM 21.2 °F 12.6 °F 14.0 °F 74% 30.30 in 10.0 mi WNW 6.9 mph - N/A   Clear
1:14 AM 19.4 °F 10.4 °F 12.2 °F 74% 30.30 in 10.0 mi NW 6.9 mph - N/A   Clear
1:34 AM 17.6 °F 8.2 °F 12.2 °F 79% 30.29 in 10.0 mi NW 6.9 mph - N/A   Clear
1:53 AM 19.4 °F 9.5 °F 12.2 °F 74% 30.29 in 10.0 mi NW 8.1 mph - N/A   Clear
2:14 AM 19.4 °F 9.5 °F 12.2 °F 74% 30.30 in 10.0 mi NW 8.1 mph - N/A   Clear
2:53 AM 17.6 °F 6.4 °F 12.2 °F 79% 30.31 in 10.0 mi NW 9.2 mph - N/A   Clear
3:34 AM 15.8 °F 7.2 °F 10.4 °F 79% 30.32 in 10.0 mi NW 5.8 mph - N/A   Clear
6:21 AM 14.0 °F 5.1 °F 10.4 °F 86% 30.23 in 10.0 mi NNE 5.8 mph - N/A   Clear
6:41 AM 15.8 °F 8.6 °F 10.4 °F 79% 30.21 in 10.0 mi North 4.6 mph - N/A   Clear
7:02 AM 14.0 °F 6.5 °F 10.4 °F 86% 30.22 in 10.0 mi North 4.6 mph - N/A   Clear
7:13 AM 14.0 °F 6.5 °F 8.6 °F 79% 30.24 in 10.0 mi NW 4.6 mph - N/A   Clear
7:34 AM 17.6 °F 8.2 °F 10.4 °F 73% 30.26 in 10.0 mi NNW 6.9 mph - N/A   Clear
7:53 AM 15.8 °F 6.1 °F 8.6 °F 73% 30.27 in 10.0 mi NNW 6.9 mph - N/A   Clear
8:13 AM 17.6 °F 10.7 °F 10.4 °F 73% 30.28 in 10.0 mi North 4.6 mph - N/A   Clear
8:34 AM 15.8 °F 10.2 °F 10.4 °F 79% 30.29 in 10.0 mi North 3.5 mph - N/A   Clear
8:53 AM 19.4 °F 12.8 °F 10.4 °F 68% 30.31 in 10.0 mi North 4.6 mph - N/A   Clear
9:02 AM 19.4 °F 14.3 °F 10.4 °F 68% 30.31 in 10.0 mi NNW 3.5 mph - N/A   Clear
9:34 AM 21.2 °F 14.9 °F 12.2 °F 68% 30.31 in 10.0 mi NW 4.6 mph - N/A   Clear
9:53 AM 21.2 °F 13.6 °F 12.2 °F 68% 30.31 in 10.0 mi NW 5.8 mph - N/A   Clear
10:34 AM 23.0 °F 15.8 °F 14.0 °F 68% 30.31 in 10.0 mi NW 5.8 mph - N/A   Clear
10:53 AM 24.8 °F 17.9 °F 15.8 °F 69% 30.30 in 10.0 mi NW 5.8 mph - N/A   Clear
11:13 AM 26.6 °F 21.2 °F 17.6 °F 69% 30.29 in 10.0 mi NNW 4.6 mph - N/A   Clear
11:34 AM 28.4 °F 23.3 °F 15.8 °F 59% 30.29 in 10.0 mi NNW 4.6 mph - N/A   Clear
11:53 AM 30.2 °F 25.4 °F 17.6 °F 60% 30.29 in 10.0 mi NW 4.6 mph - N/A   Clear
12:13 PM 30.2 °F 22.6 °F 17.6 °F 60% 30.29 in 10.0 mi North 8.1 mph - N/A   Clear
12:33 PM 33.8 °F 27.0 °F 15.8 °F 48% 30.28 in 10.0 mi North 8.1 mph - N/A   Clear
12:53 PM 33.8 °F 24.8 °F 15.8 °F 48% 30.27 in 10.0 mi North 12.7 mph - N/A   Clear
1:14 PM 35.6 °F 27.1 °F 15.8 °F 44% 30.25 in 10.0 mi North 12.7 mph - N/A   Clear
1:33 PM 35.6 °F 26.6 °F 15.8 °F 44% 30.25 in 10.0 mi North 13.8 mph - N/A   Clear
1:53 PM 35.6 °F 26.6 °F 14.0 °F 41% 30.24 in 10.0 mi North 13.8 mph - N/A   Clear
2:14 PM 35.6 °F 27.1 °F 12.2 °F 38% 30.23 in 10.0 mi North 12.7 mph - N/A   Clear
2:33 PM 35.6 °F 28.6 °F 12.2 °F 38% 30.23 in 10.0 mi North 9.2 mph - N/A   Clear
2:53 PM 37.4 °F 30.3 °F 14.0 °F 38% 30.23 in 10.0 mi North 10.4 mph - N/A   Clear
3:14 PM 37.4 °F 30.8 °F 12.2 °F 36% 30.23 in 10.0 mi North 9.2 mph - N/A   Clear
3:33 PM 37.4 °F 30.3 °F 14.0 °F 38% 30.22 in 10.0 mi North 10.4 mph - N/A   Clear
3:53 PM 37.4 °F 30.8 °F 15.8 °F 41% 30.22 in 10.0 mi North 9.2 mph - N/A   Clear
4:14 PM 37.4 °F 29.8 °F 15.8 °F 41% 30.20 in 10.0 mi North 11.5 mph - N/A   Clear
4:33 PM 37.4 °F 29.8 °F 15.8 °F 41% 30.19 in 10.0 mi North 11.5 mph - N/A   Clear
4:53 PM 39.2 °F 32.0 °F 14.0 °F 36% 30.18 in 10.0 mi North 11.5 mph - N/A   Clear
5:14 PM 37.4 °F 29.8 °F 15.8 °F 41% 30.17 in 10.0 mi North 11.5 mph - N/A   Clear
5:33 PM 37.4 °F 28.9 °F 15.8 °F 41% 30.17 in 10.0 mi NNE 13.8 mph - N/A   Clear
5:53 PM 37.4 °F 29.3 °F 15.8 °F 41% 30.17 in 10.0 mi NNE 12.7 mph - N/A   Clear
6:14 PM 37.4 °F 29.8 °F 17.6 °F 45% 30.18 in 10.0 mi NNE 11.5 mph - N/A   Clear
6:33 PM 37.4 °F 28.9 °F 15.8 °F 41% 30.16 in 10.0 mi NNE 13.8 mph - N/A   Clear
6:53 PM 37.4 °F 29.3 °F 17.6 °F 45% 30.15 in 10.0 mi NNE 12.7 mph - N/A   Clear
7:14 PM 37.4 °F 30.8 °F 17.6 °F 45% 30.16 in 10.0 mi NNE 9.2 mph - N/A   Clear
7:33 PM 37.4 °F 31.4 °F 15.8 °F 41% 30.17 in 10.0 mi NNE 8.1 mph - N/A   Clear
7:54 PM 37.4 °F 29.8 °F 14.0 °F 38% 30.15 in 10.0 mi NE 11.5 mph - N/A   Clear
8:13 PM 35.6 °F 28.0 °F 14.0 °F 41% 30.15 in 10.0 mi NE 10.4 mph - N/A   Clear
8:33 PM 35.6 °F 28.6 °F 14.0 °F 41% 30.15 in 10.0 mi NE 9.2 mph - N/A   Clear
8:54 PM 35.6 °F 28.6 °F 14.0 °F 41% 30.15 in 10.0 mi NE 9.2 mph - N/A   Clear
9:13 PM 33.8 °F 28.6 °F 14.0 °F 44% 30.16 in 10.0 mi ENE 5.8 mph - N/A   Clear
9:34 PM 33.8 °F 27.7 °F 12.2 °F 41% 30.17 in 10.0 mi NE 6.9 mph - N/A   Clear
9:53 PM 33.8 °F 27.0 °F 12.2 °F 41% 30.17 in 10.0 mi NE 8.1 mph - N/A   Clear
10:13 PM 30.2 °F 21.3 °F 12.2 °F 47% 30.15 in 10.0 mi NE 10.4 mph - N/A   Clear
10:33 PM 32.0 °F 24.2 °F 10.4 °F 41% 30.14 in 10.0 mi ENE 9.2 mph - N/A   Clear
10:53 PM 32.0 °F 24.8 °F 8.6 °F 38% 30.14 in 10.0 mi ENE 8.1 mph - N/A   Clear
11:13 PM 32.0 °F 24.8 °F 8.6 °F 38% 30.14 in 10.0 mi East 8.1 mph - N/A   Clear
11:33 PM 30.2 °F 21.9 °F 8.6 °F 40% 30.12 in 10.0 mi ENE 9.2 mph - N/A   Clear
11:53 PM 30.2 °F 21.9 °F 8.6 °F 40% 30.13 in 10.0 mi ENE 9.2 mph - N/A   Clear